Regional Weather Roundup
Issued by NWS State College, PA

Home | Current Version | Previous Version | Text Only | Print | Product List | Glossary Off
Versions: 1 2 3 4 5 6 7 8 9 10 11 12 13 14 15 16 17 18 19 20 21 22 23 24 25 26 27 28 29 30 31 32 33 34 35 36 37 38 39 40 41 42 43 44 45 46 47 48 49 50

000
ASUS41 KCTP 200003
RWRCTP

REGIONAL WEATHER ROUNDUP
NATIONAL WEATHER SERVICE STATE COLLEGE PA
700 PM EST THU JAN 19 2017

Note: "fair" indicates few or no clouds below 12,000 feet with no
significant weather and/or obstructions to visibility.

* = STATION THAT DOES NOT REPORT PRECIPITATION /E.G. RAIN...SNOW...ETC/
    THUNDER OR FOG.

PAZ002>004-007>009-013>016-020>023-029>032-200100-
WESTERN PENNSYLVANIA

CITY           SKY/WX    TMP DP  RH WIND       PRES   REMARKS
ERIE           CLOUDY    36  33  89 E5        30.01F
MEADVILLE      CLOUDY    37  32  82 CALM      29.97F
FRANKLIN*        N/A     36  30  80 CALM      29.99F
NEW CASTLE     CLOUDY    38  34  85 CALM      30.00S
BEAVER COUNTY  CLEAR     36  32  87 CALM      29.99S
BUTLER*        CLOUDY    30  27  86 CALM      30.01S
PITTSBURGH INT CLOUDY    36  34  92 CALM      29.99R
PITTSBURGH     CLEAR     39  32  76 CALM      29.98S
INDIANA*       CLEAR     32  32 100 CALM      30.01F
LATROBE        CLEAR     37  36  93 CALM      29.99F
WASHINGTON CO* CLOUDY    30  28  93 CALM      29.99S
$$

PAZ004>006-010>012-017>019-024>028-033>037-041-042-045-046-049>053-200100-
CENTRAL PENNSYLVANIA

CITY           SKY/WX    TMP DP  RH WIND       PRES   REMARKS
BRADFORD       CLOUDY    34  33  96 CALM      29.97F
DUBOIS         CLOUDY    36  30  79 CALM      29.97F
CLEARFIELD     CLOUDY    36  32  85 N5        29.99F
JOHNSTOWN      CLOUDY    37  33  85 N3        29.95F
ALTOONA        CLEAR     38  33  82 E5        29.99S
STATE COLLEGE  CLEAR     36  32  87 CALM      30.01F
WILLIAMSPORT   CLOUDY    38  32  79 CALM      30.03R
SELINSGROVE    PTCLDY    32  30  92 CALM      30.04F
FT INDIANTOWN  NOT AVBL
CAPITAL CITY   CLOUDY    39  32  76 CALM      30.01F
HARRISBURG     CLOUDY    37  35  92 CALM      30.01F
YORK           CLOUDY    34  33  96 CALM      30.01S
$$

PAZ038>040-043-044-047-048-054-055-060>062-067>071-200100-
EASTERN PENNSYLVANIA

CITY           SKY/WX    TMP DP  RH WIND       PRES   REMARKS
SCRANTON       CLOUDY    39  33  79 N3        30.03R
MOUNT POCONO   CLOUDY    33  29  85 NW6       29.99R
ALLENTOWN      CLOUDY    42  32  67 NW6       30.05R
QUAKERTOWN*    CLOUDY    36  32  87 CALM      30.04S
READING        CLOUDY    40  34  79 N5        30.02F
LANCASTER      CLOUDY    40  35  83 NE10      30.01F
COATESVILLE    CLOUDY    39  34  81 N6        30.03F
POTTSTOWN      CLOUDY    38  32  79 CALM      30.04F
BLUE BELL      CLOUDY    32  32 100 CALM      30.02F
DOYLESTOWN     CLOUDY    38  33  82 CALM      30.03R
WILLOW GROVE   NOT AVBL
NORTH PHILA    CLOUDY    40  33  76 CALM      30.06R
PHILADELPHIA   CLOUDY    44  34  67 VRB3      30.04F
$$




USA.gov is the U.S. government's official web portal to all federal, state and local government web resources and services.